Tracking 30990 objects as of 8-Jul-2025
HD Live streaming from Space Station
objects crossing your sky now

INTELSAT 4-F1

Track INTELSAT 4-F1 now!
INTELSAT 4-F1 is classified as:


NORAD ID: 7815
Int'l Code: 1975-042A
Perigee: 36,028.6 km
Apogee: 36,129.1 km
Inclination: 9.0 °
Period: 1,450.7 minutes
Semi major axis: 42449 km
RCS: 12.6 m2 (large)
Launch date: May 22, 1975
Source: International Telecommunications Satellite Organization (ITSO)
Launch site: AIR FORCE EASTERN TEST RANGE (AFETR)
Your satellite tracking list
Your tracking list is empty




NASA's NSSDC Master Catalog

Two Line Element Set (TLE):
1 07815U 75042A   25188.51593139  .00000002  00000-0  00000-0 0  9991
2 07815   8.9763 308.5373 0011829 258.0191 101.9711  0.99263325118539
Source of the keplerian elements: AFSPC